Location: Newark
(41.9000°N, 12.4833°E)
Time: 12:02:09
(UTC+00:00)

EO-88 - Visible Passes

Search period start: 23 May 2019 00:00
Search period end: 02 June 2019 00:00
Orbit: 486 x 492 km, 97.4° (Epoch: 22 May)

Date Brightness Start Highest point End Pass type
(mag) Time Alt. Az. Time Alt. Az. Time Alt. Az.
23 May ? 20:38:45 54° SSE 20:39:29 80° ENE 20:43:08 10° N visible
24 May ? 20:15:35 30° ESE 20:16:40 39° ENE 20:20:05 10° N visible
24 May ? 21:50:02 13° W 21:50:23 13° W 21:52:06 10° WNW visible
25 May ? 19:52:24 17° ESE 19:53:55 21° ENE 19:56:43 10° NNE visible
25 May ? 21:26:52 23° WSW 21:27:19 24° W 21:30:20 10° NW visible
26 May ? 19:29:50 10° E 19:31:15 12° ENE 19:32:38 10° NE visible
26 May ? 21:03:42 41° SW 21:04:21 47° W 21:07:53 10° NNW visible
27 May ? 20:40:32 49° SSE 20:41:26 84° ENE 20:45:06 10° N visible
28 May ? 20:17:21 30° ESE 20:18:36 41° ENE 20:22:03 10° N visible
28 May ? 21:51:49 12° W 21:52:20 12° W 21:53:53 10° WNW visible
29 May ? 19:54:11 16° ESE 19:55:51 22° ENE 19:58:43 10° NNE visible
29 May ? 21:28:38 22° WSW 21:29:17 23° W 21:32:14 10° NW visible
30 May ? 19:31:34 10° E 19:33:09 12° ENE 19:34:44 10° NE visible
30 May ? 21:05:28 37° SW 21:06:17 44° W 21:09:47 10° NNW visible
31 May ? 20:42:18 44° SSE 20:43:22 89° E 20:47:02 10° NNW visible
01 Jun ? 20:19:08 29° SE 20:20:31 43° ENE 20:24:00 10° N visible
01 Jun ? 21:53:35 11° WSW 21:54:17 12° W 21:55:37 10° WNW visible
